Regional Weather Roundup
Issued by NWS Huntsville, AL

Home | Current Version | Previous Version | Text Only | Print | Product List | Glossary On
Versions: 1 2 3 4 5 6 7 8 9 10 11 12 13 14 15 16 17 18 19 20 21 22 23 24 25 26 27 28 29 30 31 32 33 34 35 36 37 38 39 40 41 42 43 44 45 46 47 48 49 50
000
ASUS44 KHUN 171100
RWRHUN

WEATHER ROUNDUP FOR THE TENNESSEE VALLEY
NATIONAL WEATHER SERVICE HUNTSVILLE AL
600 AM CDT THU APR 17 2014

ALZ001>004-171200-
NORTHWEST ALABAMA

CITY           SKY/WX    TMP DP  RH WIND       PRES   REMARKS
COURTLAND HCN    N/A     46 N/A N/A SE7         N/A
RUSSELLVILLE     N/A     46 N/A N/A MISG        N/A
SHOALS AIRPORT PTCLDY    44  34  67 SE7       30.30R
SHOALS TVA RES   N/A     45 N/A N/A MISG        N/A
$$

ALZ005>007-016-171200-
NORTH CENTRAL ALABAMA

CITY           SKY/WX    TMP DP  RH WIND       PRES   REMARKS
CULLMAN AG STN   N/A     43 N/A N/A E5          N/A
DECATUR AP     CLEAR     45  33  63 SE6       30.33R
HUNTSVILLE AP  PTCLDY    45  33  63 SE9       30.32R
HUN NWS/UAH      N/A     47  29  49 SE7         N/A
MERIDIANVILLE  CLEAR     46  27  46 SE5       30.33R
VINEMONT AP    FAIR      43  32  64 E3        30.33R
$$

ALZ008>010-171200-
NORTHEAST ALABAMA

CITY           SKY/WX    TMP DP  RH WIND       PRES   REMARKS
FORT PAYNE     NOT AVBL
SCOTTSBORO AP  PTCLDY    45  32  61 CALM      30.36R
SCOTTSBORO HCN   N/A     37 N/A N/A MISG        N/A
VALLEY HEAD      N/A     46 N/A N/A MISG        N/A
$$

TNZ076-096-097-171200-
SOUTHEASTERN MIDDLE TENNESSEE

CITY           SKY/WX    TMP DP  RH WIND       PRES   REMARKS
TULLAHOMA      CLEAR     45  27  49 SE8       30.32R
WINCHESTER     CLEAR     45  28  53 SE12      30.33R
$$

...SURROUNDING SITES...

CITY           SKY/WX    TMP DP  RH WIND       PRES   REMARKS
ATLANTA        PTCLDY    40  33  76 E12       30.37R WCI  33
ANNISTON       CLEAR     44  35  70 NE5       30.35R
BIRMINGHAM     PTCLDY    47  35  63 E7        30.31S
CHATTANOOGA    PTCLDY    41  33  73 CALM      30.36R
CORINTH        FAIR      37  36  93 CALM      30.26R
DALTON         NOT AVBL
GADSDEN        NOT AVBL
GOLDEN TRNGL   CLEAR     48  36  61 SE13G20   30.27R
HALEYVILLE     FAIR      43  34  70 E5        30.31R
JACKSON TN     CLEAR     40  33  76 CALM      30.25R
MEMPHIS        PTCLDY    45  34  65 SE3       30.21R
NASHVILLE      MOCLDY    46  32  58 S3        30.32R
ROME           CLEAR     42  32  67 CALM      30.37R
TUPELO         CLEAR     41  37  86 CALM      30.26R
TUSCALOOSA     PTCLDY    47  37  68 E5        30.28R
$$

...GULF COAST WEATHER...

CITY           SKY/WX    TMP DP  RH WIND       PRES   REMARKS
GULFPORT       CLOUDY    56  47  71 NE8       30.14R
PASCAGOULA     CLOUDY    51  49  92 NE5       30.15S
MOBILE         CLOUDY    51  48  89 E9        30.18R
PENSACOLA      MOCLDY    58  53  84 E16G24    30.17R
DESTIN         MOCLDY    56  49  77 E10       30.20R
PANAMA CITY    MOCLDY    52  48  85 NE8       30.20S
APPALACHICOLA  MOCLDY    54  48  80 NE10      30.19R
$$




USA.gov is the U.S. government's official web portal to all federal, state and local government web resources and services.